Simultaneous Nadir Overpasses (SNOs) Predictions

Prediction of SNOs between METOP-A and NOAA-19 Satellite Orbit:

Table of predicted SNOs for the next 14.0 days since TLE Epoch: 6/26/2021
Index Date (METOP-A) Time (METOP-A) Lat,Lon (METOP-A) SZA (METOP-A ) Date (NOAA-19) Time (NOAA-19) Lat,Lon (NOAA-19) SZA (NOAA-19 ) Distance(km) Time Diff (sec)
1 07/06/2021 05:38:16 -80.81, -76.91 121.84 07/06/2021 05:37:18 -80.81, -76.89 121.85 0.78 58
2 07/06/2021 06:28:57 80.80, 90.22 58.15 07/06/2021 06:28:17 80.81, 90.31 58.16 1.68 40
3 07/06/2021 07:19:38 -80.80,-102.40 121.85 07/06/2021 07:19:18 -80.81,-102.27 121.84 2.38 20
4 07/06/2021 08:10:18 80.81, 65.07 58.18 07/06/2021 08:10:17 80.81, 64.92 58.17 2.78 1
5 07/06/2021 09:00:59 -80.82,-127.55 121.82 07/06/2021 09:01:18 -80.81,-127.65 121.83 1.93 19
6 07/06/2021 09:51:39 80.83, 39.93 58.20 07/06/2021 09:52:16 80.82, 39.90 58.19 1.14 37
7 07/06/2021 10:42:21 -80.81,-153.04 121.83 07/06/2021 10:43:18 -80.81,-153.04 121.82 0.81 57



Historial Predications of SNOs between METOP-A and NOAA-19
